COSMOS 944

导读 | 豆包AI

COSMOS 944(宇宙944)是苏联(独联体CIS)于1977年8月24日发射的人造卫星,隶属于苏联“宇宙”(Cosmos)卫星系列。该系列涵盖军事、科学等多类用途,通过统一命名模糊卫星任务属性,提升保密性。作为冷战时期苏联航天活动的组成部分,COSMOS 944服役完成任务后已再入大气层销毁,其发射是苏联太空军事应用发展的典型缩影,见证了冷战航天竞争历史。

Basic Information
目录编号:
10290
目录名称:
COSMOS 944
国际标识:
1977-079F
轨道中心:
EARTH
卫星名称:
COSMOS 944
卫星全名:
--
卫星状态:
在轨 (已飞行17781 天)
发射日期:
1977-08-24 UTC
国别 :
俄罗斯(独联体) (CIS)
星等 :
--
Orbit Information
数据来源 国际轨道数据
星历时间: 2026-04-30T21:27:04+0800
4小时前
查看轨道信息
半长轴: 7843.86km
偏心率: 0.0006212
轨道倾角: 74.028°
近地点辐角 242.515°
升交点赤经 39.612°
平近点角 290.488°
近地点: 1460.85km
远地点: 1470.596km
周期: 115.227分钟
每日圈数: 12.497066
Detailed Information
使用方式:
暂无
2D Orbit Map
3D Orbit Map
Orbit Altitude Analysis Chart
Orbit Inclination Analysis Chart
Orbit Comprehensive Analysis Chart
View Comprehensive Chart